Time,TemperatureF,DewpointF,PressureIn,WindDirection,WindDirectionDegrees,WindSpeedMPH,WindSpeedGustMPH,Humidity,HourlyPrecipIn,Conditions,Clouds,dailyrainin,SoftwareType,DateUTC
2013-07-02 17:44:00,77.0,40.0,-100.00,NNE,15,2.0,5.0,27,-99.99,,,-99.99,,2013-07-02 23:44:00,
2013-07-02 17:52:00,77.0,39.0,-100.00,NE,52,3.0,6.0,26,-99.99,,,-99.99,,2013-07-02 23:52:00,
2013-07-02 18:11:00,77.0,39.0,-100.00,NNW,346,2.0,5.0,26,-99.99,,,-99.99,,2013-07-03 00:11:00,
2013-07-02 18:22:00,77.0,39.0,-100.00,NNE,28,2.0,5.0,26,-99.99,,,-99.99,,2013-07-03 00:22:00,
2013-07-02 18:44:00,77.0,37.0,-100.00,North,7,2.0,6.0,24,-99.99,,,-99.99,,2013-07-03 00:44:00,
2013-07-02 18:52:00,76.0,37.0,-100.00,NNE,24,3.0,9.0,24,-99.99,,,-99.99,,2013-07-03 00:52:00,
2013-07-02 19:11:00,75.0,36.0,-100.00,NNE,20,1.0,4.0,24,-99.99,,,-99.99,,2013-07-03 01:11:00,
2013-07-02 19:42:00,74.0,37.0,-100.00,North,350,1.0,3.0,26,-99.99,,,-99.99,,2013-07-03 01:42:00,
2013-07-02 19:54:00,74.0,42.0,-100.00,NE,37,2.0,4.0,32,-99.99,,,-99.99,,2013-07-03 01:54:00,
2013-07-02 20:12:00,72.0,40.0,-100.00,North,3,1.0,3.0,31,-99.99,,,-99.99,,2013-07-03 02:12:00,
2013-07-02 20:43:00,71.0,40.0,-100.00,NNW,334,1.0,3.0,33,-99.99,,,-99.99,,2013-07-03 02:43:00,
2013-07-02 20:54:00,71.0,41.0,-100.00,NE,45,1.0,2.0,34,-99.99,,,-99.99,,2013-07-03 02:54:00,
2013-07-02 21:12:00,70.0,40.0,-100.00,North,1,0.0,2.0,34,-99.99,,,-99.99,,2013-07-03 03:12:00,
2013-07-02 21:25:00,69.0,39.0,-100.00,WNW,295,1.0,2.0,34,-99.99,,,-99.99,,2013-07-03 03:25:00,
2013-07-02 21:35:00,69.0,39.0,-100.00,ENE,73,0.0,1.0,34,-99.99,,,-99.99,,2013-07-03 03:35:00,
2013-07-02 21:44:00,69.0,39.0,-100.00,ENE,73,0.0,1.0,34,-99.99,,,-99.99,,2013-07-03 03:44:00,
2013-07-02 21:54:00,68.0,39.0,-100.00,ESE,113,1.0,3.0,35,-99.99,,,-99.99,,2013-07-03 03:54:00,
2013-07-02 22:11:00,68.0,41.0,-100.00,East,96,0.0,2.0,37,-99.99,,,-99.99,,2013-07-03 04:11:00,
2013-07-02 22:43:00,67.0,41.0,-100.00,SW,230,0.0,1.0,38,-99.99,,,-99.99,,2013-07-03 04:43:00,
2013-07-02 22:52:00,67.0,40.0,-100.00,SW,226,0.0,2.0,37,-99.99,,,-99.99,,2013-07-03 04:52:00,
2013-07-02 23:11:00,67.0,38.0,-100.00,SW,220,1.0,1.0,35,-99.99,,,-99.99,,2013-07-03 05:11:00,
2013-07-02 23:23:00,67.0,37.0,-100.00,SW,231,1.0,1.0,33,-99.99,,,-99.99,,2013-07-03 05:23:00,
2013-07-02 23:44:00,67.0,36.0,-100.00,SW,216,1.0,2.0,32,-99.99,,,-99.99,,2013-07-03 05:44:00,
2013-07-02 23:45:00,67.0,33.0,-100.00,WSW,252,1.0,1.0,28,-99.99,,,-99.99,,2013-07-03 05:45:00,
2013-07-02 23:54:00,67.0,35.0,-100.00,SW,220,1.0,2.0,31,-99.99,,,-99.99,,2013-07-03 05:54:00,